Flight Information

DEPARTURE
HAILEY, ID
Elevation:
5319
Runways:
13/31 - 7550x100 - ASPH-G
Active PE Departure:
13
Current PE ATIS:
M
Altimeter:
Remarks:
ATIS:
128.225 208-788-2108
Ground:
121.7
Tower:
HAILEY TOWER 125.6
DESTINATION
,
Elevation:
TPA:
1000 (est.)


6441.6 NM73° True-17° Var56° HDG

Flight Plan:
(click to file on line)

1. Type
2. Aircraft Identification
3. Aircraft Type / Special Equipment
4. True Airspeed
kts
5. Departure Airport
(ICAO code)
6. Arriving Airport
(ICAO code)
7. Cruising Altitude
ft
8. Alternate Airport
(ICAO code)
9. Route of Flight
10. Remarks


00:00:00 Departure ATIS: Destination ATIS:

Clearance Limit:
Route:
Altitude: Expect in minutes
Frequency:
Transponder: (7500 Hijack / 7600 Lost Comms / 7700 Emergency)


KSUN 010353Z 29007KT 10SM SKC 13/02 A3041
Time: 2020-10-01T03:53:00Z
1601527812
Winds: 290 @ 7 kts
Visibility: 10.0 sm
Clouds (AGL): SKC
Temperature: 13.0 C
Dew Point: 2.0 C
Pressure: 30.410433 in Hgbr


Notes:

Data extracted from FAA Digital Chart Supplement. Effective: 0901Z Thursday, Sep 10, 2020 to 0901Z Thursday, Nov 5, 2020
Current ATIS data is provided courtisy of PilotEdge.